Home   Weather   Kagoshima   Past weeks

Flag for Japan Past Weather in Kagoshima, Japan — Yesterday and Last 2 Weeks

Now
88 °F

Hot.


Feels Like: 98 °F
Forecast: 74 / 86 °F
Wind: 12 mph from Northwest

Location: Kagoshima

Current Time: Sep 29, 2016 at 5:35:18 PM

Latest Report: Sep 29, 2016 at 4:00 PM


Visibility: N/A

Pressure: 29.88 "Hg

Humidity: 64%

Dew Point: 75 °F

Location of KagoshimaLocation

Past Weather in Kagoshima — Graph

°F

Kagoshima Temperature Yesterday

Maximum temperature yesterday: 87 °F (at 2:00 PM)
Minimum temperature yesterday: 80 °F (at 6:00 AM)
Average temperature yesterday: 83 °F

High & Low Weather Summary for the Past Weeks

 TemperatureHumidityPressure
High90 °F (Sep 18, 2:00 PM)100% (Sep 18, 2:00 AM)30.01 "Hg (Sep 18, 2:00 AM)
Low71 °F (Sep 21, 5:00 AM)57% (Sep 23, 2:00 PM)28.94 "Hg (Sep 20, 12:00 AM)
Average81 °F80%29.88 "Hg
* Reported Sep 14 4:00 PM — Sep 29 4:00 PM, Kagoshima, Weather by CustomWeather, © 2016

Note: Actual official high and low records may vary slightly from our data, if they occured in-between our weather recording intervals... More about our weather records

Advertising

Kagoshima Weather History for the Previous 24 Hours

Scroll right to see more
 ConditionsComfort  
Time TempWeatherWind HumidityBarometerVisibility
4:00 PM
Thu, Sep 29
88 °FHot.12 mph64%29.88 "HgN/A
3:00 PM90 °FPartly sunny.13 mph59%29.87 "Hg22 mi
2:00 PM87 °FWarm.6 mph75%29.88 "HgN/A
1:00 PM87 °FWarm.7 mph74%29.89 "HgN/A
12:00 PM87 °FOvercast.7 mph76%29.91 "Hg22 mi
11:00 AM84 °FWarm.6 mph80%29.92 "HgN/A
10:00 AM85 °FWarm.7 mph78%29.93 "HgN/A
9:00 AM85 °FPartly sunny.7 mph83%29.93 "Hg12 mi
8:00 AM82 °FWarm.3 mph86%29.92 "HgN/A
7:00 AM81 °FWarm.2 mph90%29.91 "HgN/A
6:00 AM80 °FPassing clouds.2 mph92%29.91 "Hg12 mi
5:00 AM81 °FWarm.5 mph90%29.90 "HgN/A
4:00 AM81 °FWarm.2 mph91%29.90 "HgN/A
3:00 AM81 °FPassing clouds.3 mph91%29.90 "Hg12 mi
2:00 AM81 °FWarm.2 mph87%29.91 "HgN/A
1:00 AM81 °FWarm.5 mph90%29.92 "HgN/A
12:00 AM81 °FWarm.5 mph90%29.93 "HgN/A
11:00 PM
Wed, Sep 28
82 °FWarm.6 mph91%29.93 "HgN/A
10:00 PM82 °FWarm.7 mph90%29.93 "HgN/A
9:00 PM82 °FOvercast.5 mph88%29.93 "Hg12 mi
8:00 PM83 °FWarm.7 mph87%29.92 "HgN/A
7:00 PM84 °FWarm.8 mph79%29.90 "HgN/A
6:00 PM85 °FOvercast.7 mph74%29.90 "Hg19 mi
5:00 PM85 °FWarm.6 mph82%29.89 "HgN/A
Weather by CustomWeather, © 2016

See weather overviewHow to use our weather pages